This is the latest recevied weather packets stored in our database for station/object N5KJT. If no packets are shown the sender has not sent any weather packets the latest 10 day(s).
| Time | Temp. | Humidity | Pressure | Rain* | Wind** | Luminosity | Snow |
|---|---|---|---|---|---|---|---|
| 1787936415 | 27.78° C | 39% | 1029.6 hPa | 0 mm | - | 944 W/m² | - |
| 1787936115 | 27.78° C | 39% | 1029.6 hPa | 0 mm | - | 890 W/m² | - |
| 1787935815 | 27.22° C | 39% | 1029.7 hPa | 0 mm | - | 836 W/m² | - |
| 1787935515 | 27.22° C | 39% | 1029.7 hPa | 0 mm | - | 786 W/m² | - |
| 1787935215 | 27.22° C | 40% | 1029.6 hPa | 0 mm | - | 739 W/m² | - |
| 1787934915 | 26.67° C | 40% | 1029.7 hPa | 0 mm | - | 695 W/m² | - |
| 1787934615 | 26.67° C | 41% | 1029.7 hPa | 0 mm | - | 648 W/m² | - |
| 1787934315 | 26.67° C | 41% | 1029.8 hPa | 0 mm | - | 533 W/m² | - |
| 1787934015 | 26.11° C | 41% | 1029.8 hPa | 0 mm | - | 573 W/m² | - |
| 1787933715 | 26.11° C | 42% | 1029.8 hPa | 0 mm | - | 539 W/m² | - |
| 1787933415 | 26.11° C | 43% | 1029.9 hPa | 0 mm | - | 573 W/m² | - |
| 1787933115 | 25.56° C | 44% | 1029.9 hPa | 0 mm | - | 604 W/m² | - |
| 1787932818 | 25.56° C | 44% | - | 0 mm | - | 644 W/m² | - |
| 1787932515 | 25° C | 48% | 1029.9 hPa | 0 mm | - | 644 W/m² | - |
| 1787932215 | 24.44° C | 48% | 1029.9 hPa | 0 mm | - | 645 W/m² | - |
| 1787931915 | 24.44° C | 50% | 1029.9 hPa | 0 mm | - | 648 W/m² | - |
| 1787931615 | 23.89° C | 51% | 1029.9 hPa | 0 mm | - | 644 W/m² | - |
| 1787931315 | 23.33° C | 52% | 1030 hPa | 0 mm | - | 639 W/m² | - |
| 1787931015 | 23.33° C | 53% | 1030 hPa | 0 mm | - | 634 W/m² | - |
| 1787930715 | 22.78° C | 54% | 1030.2 hPa | 0 mm | - | 625 W/m² | - |
| 1787930415 | 22.22° C | 55% | 1030.2 hPa | 0 mm | - | 609 W/m² | - |
| 1787930115 | 21.67° C | 57% | 1030.2 hPa | 0 mm | - | 591 W/m² | - |
| 1787929815 | 21.11° C | 58% | 1030.3 hPa | 0 mm | - | 544 W/m² | - |
| 1787929515 | 21.11° C | 59% | 1030.3 hPa | 0 mm | - | 487 W/m² | - |
| 1787929215 | 20.56° C | 61% | 1030.2 hPa | 0 mm | - | 429 W/m² | - |
* Rain latest hour (hover to see other rain measurements)
** Current wind speed in m/s (hover to see current wind gust speed)